Juliana Airport, Sint Maarten

2:28 PM AST on August 18, 2017 (GMT -0400)
Princess Juliana International

Weather History for TNCM - February, 2012

Change the Weather History Date:

Monday, February 6, 2012

  Actual Average Record
Temperature  
Mean Temperature 77 °F -  
Max Temperature 81 °F 81 °F 86 °F (1998)
Min Temperature 73 °F 72 °F 69 °F (1999)
Cooling Degree Days 12    
Growing Degree Days 27 (Base 50)    
Moisture  
Dew Point 68 °F    
Average Humidity 71    
Maximum Humidity 83    
Minimum Humidity 54    
Precipitation  
Precipitation 0.12 in 0.06 in - ()
Sea Level Pressure  
Sea Level Pressure 30.03 in    
Wind  
Wind Speed 10 mph ()    
Max Wind Speed 15 mph    
Max Gust Speed -    
Visibility 7.9 miles    
Events Rain    
Averages and records for this station are not official NWS values.
T = Trace of Precipitation, MM = Missing Value Source: Averaged Metar Reports

Daily Weather History Graph

Daily Weather History Graph

Search for Another Location

Airport or City:

Trip Planner

Search our weather history database for the weather conditions in past years. The results will help you decide how hot, cold, wet, or windy it might be!

Date:

Astronomy

Feb. 06, 2012 Rise Set
Actual Time 6:43 AM AST 6:09 PM AST
Civil Twilight 6:21 AM AST 6:31 PM AST
Nautical Twilight 5:55 AM AST 6:57 PM AST
Astronomical Twilight 5:29 AM AST 7:23 PM AST
Moon 5:09 PM AST (2/6) 5:27 AM AST (2/6)
Length of Visible Light 12h 10m
Length of Day
11h 25m
Waxing Gibbous, 98% of the Moon is Illuminated
Feb 6
Waxing Gibbous
Feb 7
Full
Feb 14
Last Quarter
Feb 21
New
Feb 29
First Quarter

Hourly Weather History & Observations

Time (AST) Temp. Heat Index Dew Point Humidity Pressure Visibility Wind Dir Wind Speed Gust Speed Precip Events Conditions
12:00 AM 77.0 °F - 68.0 °F 74% 30.04 in 6.2 mi ESE 10.4 mph - N/A   Partly Cloudy
1:00 AM 77.0 °F - 68.0 °F 74% 30.04 in 6.2 mi ESE 6.9 mph - N/A   Scattered Clouds
2:00 AM 76 °F - 68 °F 71% 30.02 in 19 mi East 10.4 mph - -   Partly Cloudy
2:00 AM 77.0 °F - 68.0 °F 74% 30.01 in 6.2 mi East 10.4 mph - N/A   Mostly Cloudy
3:00 AM 73.4 °F - 68.0 °F 83% 30.01 in 6.2 mi East 10.4 mph - N/A Rain Rain Showers
4:00 AM 73.4 °F - 68.0 °F 83% 30.01 in 6.2 mi East 9.2 mph - N/A   Scattered Clouds
5:00 AM 76 °F - 69 °F 72% 30.00 in 19 mi ESE 6.9 mph - -   Partly Cloudy
5:00 AM 75.2 °F - 68.0 °F 78% 29.98 in 6.2 mi East 8.1 mph - N/A   Partly Cloudy
6:00 AM 77.0 °F - 68.0 °F 74% 30.01 in 6.2 mi East 8.1 mph - N/A   Scattered Clouds
7:00 AM 77.0 °F - 68.0 °F 74% 30.04 in 6.2 mi ESE 10.4 mph - N/A   Scattered Clouds
8:00 AM 77.0 °F - 68.0 °F 74% 30.04 in 6.2 mi ESE 9.2 mph - N/A   Partly Cloudy
9:00 AM 78.8 °F - 66.2 °F 65% 30.06 in 6.2 mi East 13.8 mph - N/A   Partly Cloudy
10:00 AM 77.0 °F - 68.0 °F 74% 30.09 in 6.2 mi East 15.0 mph - N/A   Scattered Clouds
11:00 AM 80.6 °F 83.9 °F 69.8 °F 70% 30.06 in 6.2 mi East 11.5 mph - N/A   Partly Cloudy
12:00 PM 80.6 °F 83.9 °F 69.8 °F 70% 30.06 in 6.2 mi ESE 13.8 mph - N/A   Partly Cloudy
1:00 PM 80.6 °F 83.2 °F 68.0 °F 65% 30.06 in 6.2 mi ESE 12.7 mph - N/A   Scattered Clouds
2:00 PM 81 °F - 67 °F 54% 30.03 in 28 mi East 10.4 mph - -  
2:00 PM 80.6 °F 83.2 °F 68.0 °F 65% 30.01 in 6.2 mi East 10.4 mph - N/A   Partly Cloudy
3:00 PM 80.6 °F 83.2 °F 68.0 °F 65% 30.01 in 6.2 mi ESE 12.7 mph - N/A   Partly Cloudy
4:00 PM 80.6 °F 83.2 °F 68.0 °F 65% 30.01 in 6.2 mi East 12.7 mph - N/A   Scattered Clouds
4:52 PM 77.0 °F - 68.0 °F 74% 30.01 in 5.0 mi ESE 13.8 mph - N/A Rain Rain Showers
5:00 PM 76 °F - 68 °F 69% 30.01 in 19 mi East 11.5 mph - - Rain Light Rain Showers
5:00 PM 77.0 °F - 68.0 °F 74% 30.01 in 6.2 mi East 11.5 mph - N/A Rain Light Rain Showers
6:00 PM 77.0 °F - 68.0 °F 74% 30.01 in 6.2 mi East 12.7 mph - N/A   Partly Cloudy
7:00 PM 77.0 °F - 66.2 °F 69% 30.01 in 6.2 mi East 13.8 mph - N/A   Partly Cloudy
8:00 PM 77 °F - 66 °F 61% 30.03 in 19 mi East 12.7 mph - -   Partly Cloudy
8:00 PM 77.0 °F - 66.2 °F 69% 30.01 in 6.2 mi East 12.7 mph - N/A   Mostly Cloudy
9:00 PM 77.0 °F - 68.0 °F 74% 30.04 in 6.2 mi East 15.0 mph - N/A   Mostly Cloudy
10:00 PM 77.0 °F - 68.0 °F 74% 30.06 in 6.2 mi East 11.5 mph - N/A   Mostly Cloudy
11:00 PM 77.0 °F - 66.2 °F 69% 30.04 in 6.2 mi East 13.8 mph - N/A   Partly Cloudy